Regional Weather Roundup
Issued by NWS Sterling, VA

Home | Current Version | Previous Version | Graphics & Text | Print | Product List | Glossary On
Versions: 1 2 3 4 5 6 7 8 9 10 11 12 13 14 15 16 17 18 19 20 21 22 23 24 25 26 27 28 29 30 31 32 33 34 35 36 37 38 39 40 41 42 43 44 45 46 47 48 49 50
000
ASUS41 KLWX 262310
RWRLWX

REGIONAL WEATHER ROUNDUP
NATIONAL WEATHER SERVICE BALTIMORE MD/WASHINGTON DC
600 PM EST SUN FEB 26 2017

Note: "FAIR" indicates few or no clouds below 12,000 feet
with no significant weather and/or obstructions to visibility.
 TC=TEMPERATURE CELSIUS

 * =Non NWS site. Station does not report precipitation (e.g. rain,
    snow, etc.), thunder, or fog.

DCZ001-MDZ009-015-VAZ040>042-051-053>054-270000-
WASHINGTON METRO

CITY           SKY/WX    TMP DP  RH WIND       PRES   REMARKS
WASHINGTON NAT CLEAR     46  19  34 N8        30.21R
DULLES         PTCLDY    45  15  30 NW7       30.19R
ANDREWS AFB    CLEAR     44  17  33 W5        30.19R
FT BELVOIR     CLEAR     47  17  29 VRB3      30.20R
QUANTICO       CLEAR     49  16  26 W3        30.21R
COLLEGE PARK*  CLEAR     43  19  39 N6        30.21R
LEESBURG*      CLEAR     45  21  39 MISG      30.20R
MANASSAS*      CLEAR     46  19  34 N8        30.21R
GAITHERSBURG*  CLEAR     41  18  38 CALM      30.23R

$$

MDZ006>007-011-014-270000-
BALTIMORE METRO

CITY           SKY/WX    TMP DP  RH WIND       PRES   REMARKS
BWI AIRPORT    CLEAR     42  20  41 NW8       30.20R
MD SCIENCE CTR   N/A     45  17  32 MISG      30.20R
MARTIN STATE   PTCLDY    43  21  42 W13       30.22R
ANNAPOLIS      CLEAR     46  23  40 NW7       30.20R
FORT MEADE*    CLEAR     41  21  45 NW6       30.23R

$$

MDZ012-015-019>023-270000-
MARYLAND EASTERN SHORE

CITY           SKY/WX    TMP DP  RH WIND       PRES   REMARKS
OCEAN CITY     CLEAR     42  19  39 NW6       30.21R
SALISBURY      CLEAR     41  21  44 NW7       30.21R
BAY BRIDGE AP* CLEAR     43  23  45 N3        30.21R
CAMBRIDGE*     CLEAR     41  23  48 CALM      30.21R
EASTON*        CLEAR     43  19  39 N5        30.24R

$$

MDZ017>025-270000-
SOUTHERN MARYLAND

CITY           SKY/WX    TMP DP  RH WIND       PRES   REMARKS
PATUXENT RIVER PTCLDY    45  25  45 N6        30.20R
ST INIGOES     CLEAR     46  21  37 CALM      30.20R
LEONARDTOWN*   CLEAR     43  23  45 CALM      30.22R

$$

MDZ003>005-270000-
NORTH CENTRAL MARYLAND

CITY           SKY/WX    TMP DP  RH WIND       PRES   REMARKS
FREDERICK*     CLEAR     41  21  45 NW6       30.23R
HAGERSTOWN APT CLEAR     40  17  39 NW5       30.18R
WESTMINSTER*   CLEAR     39  19  45 W8        30.18R

$$

MDZ501>502-270000-
WESTERN MARYLAND

CITY           SKY/WX    TMP DP  RH WIND       PRES   REMARKS
OAKLAND*       CLEAR     30   9  40 W7        30.10R
CUMBERLAND*    CLEAR     41  10  28 W8        30.22R

$$

VAZ025>031-270000-
SHENANDOAH VALLEY

CITY           SKY/WX    TMP DP  RH WIND       PRES   REMARKS
WINCHESTER*    CLEAR     39  14  35 W8        30.18R
FRONT ROYAL*   CLEAR     43  12  28 NW6       30.17R
LURAY*         CLEAR     45  14  29 W5        30.18R
NEW MARKET*    CLEAR     44   1  16 W6        30.18R
STAUNTON*      CLEAR     44  10  25 NW6       30.19R
WAYNESBORO*    CLEAR     45   3  17 CALM      30.17R

$$

WVZ021-048>050-054>055-270000-
EASTERN WEST VIRGINIA PANHANDLE

CITY           SKY/WX    TMP DP  RH WIND       PRES   REMARKS
MARTINSBURG    CLEAR     43  11  27 W7        30.18R
PETERSBURG*    CLEAR     42  14  31 W8        30.19R

$$

VAZ036>039-050-270000-
CENTRAL FOOTHILLS

CITY           SKY/WX    TMP DP  RH WIND       PRES   REMARKS
CHARLOTTESVILL CLEAR     51   9  18 VRB3      30.17R
CULPEPER*      CLEAR     47  19  33 CALM      30.19R
ORANGE*        CLEAR     46  16  29 CALM      30.19R
GORDONSVILLE*  CLEAR     49  15  25 CALM      30.17R
WARRENTON*     CLEAR     46  11  24 S3        30.19R

$$

VAZ055>057-270000-
NORTH AND CENTRAL PIEDMONT

CITY           SKY/WX    TMP DP  RH WIND       PRES   REMARKS
FREDERICKSBRG* CLEAR     49  20  31 SW5       30.19R
STAFFORD*      CLEAR     47  15  27 CALM      30.23R

$$

NCZ024-NYZ072-PAZ021-071-VAZ022-071-270000-
OTHER REGIONAL OBSERVATIONS

CITY           SKY/WX    TMP DP  RH WIND       PRES   REMARKS
NEW YORK CITY  PTCLDY    40  14  34 W9        30.14R
PHILADELPHIA   PTCLDY    42  16  34 W15       30.19R
PITTSBURGH     PTCLDY    39  14  36 SW7       30.13R
ROANOKE        CLEAR     48   8  19 NW12      30.21R
RICHMOND       CLEAR     49  16  26 SW3       30.20R
RALEIGH        PTCLDY    53  14  21 CALM      30.22R

$$

ANZ530>537-270000-
MARINE OBSERVATIONS

STATION/POSITION TIME  TEMP    WIND        PRES
                       AIR SEA DIR/SP/G
                 (UTC) (F)     (DEG/KT/KT) (MB)
THOMAS PT LIGHT  2300   45 44  340/  7/  8   N/A
BALT KEY BRIDGE  2248   44     300/ 11/ 13 1022.6R
COVE POINT       2248   45      10/  3/  8 1023.2R
LEWISETTA        2248   46 49  350/  4/  5 1022.7R
SOLOMONS ISLAND  2248   47 45  330/  5/  6   N/A
PINEY POINT      2248          290/  2/  2   N/A

$$




USA.gov is the U.S. government's official web portal to all federal, state and local government web resources and services.